Location: Newark
(22.3145°N, 88.6625°E)
Time: 22:37:28
(UTC+00:00)

Envisat - Pass Details

Date: 23 September 2019
Orbit: 764 x 766 km, 98.1° (Epoch: 21 October)

Event Time Altitude Azimuth Distance (km) Brightness Sun altitude
Rises 12:24:09 0° 166° (SSE) 3,218 6.1 -6.1°
Reaches altitude 10° 12:26:26 10° 165° (SSE) 2,294 5.3 -6.6°
Maximum altitude 12:31:30 85° 77° (ENE) 772 3.0 -7.8°
Drops below altitude 10° 12:36:35 10° 350° (N) 2,301 5.7 -9.0°
Sets 12:38:53 0° 349° (N) 3,229 6.4 -9.5°
